RUK8491 EGAE-EGCC

Flight info

Callsign RUK8491
Flight time 0h 45m
Altitude 25000
Route DCT BELZU L10 DUFFY L15 PEPOD Q38 MAKUX MAKUX1M
Aircraft B38M/M-SDE1FGHILORVWXY/HB1

Departure

Time 2026-05-04 15:17
Airport City of Derry Airport (EGAE)

Arrival

Time 2026-05-04 16:03
Airport Manchester Airport (EGCC)
Time Latitude Longitude Altitude Speed Heading
2026-05-04 14:49 55.04023 -7.15681 20 ft 0 kts 168°
2026-05-04 15:04 55.04033 -7.15684 19 ft 3 kts 169°
2026-05-04 15:04 55.04038 -7.15686 22 ft 0 kts 168°
2026-05-04 15:08 55.04040 -7.15687 19 ft 2 kts 168°
2026-05-04 15:08 55.04061 -7.15693 21 ft 3 kts 179°
2026-05-04 15:08 55.04079 -7.15688 21 ft 3 kts 218°
2026-05-04 15:09 55.04087 -7.15672 19 ft 0 kts 258°
2026-05-04 15:11 55.04087 -7.15673 19 ft 0 kts 258°
2026-05-04 15:11 55.04087 -7.15676 19 ft 0 kts 258°
2026-05-04 15:12 55.04086 -7.15677 20 ft 0 kts 258°
2026-05-04 15:12 55.04086 -7.15684 20 ft 1 kts 258°
2026-05-04 15:12 55.04083 -7.15706 20 ft 3 kts 258°
2026-05-04 15:12 55.04078 -7.15747 19 ft 4 kts 258°
2026-05-04 15:13 55.04071 -7.15807 19 ft 6 kts 258°
2026-05-04 15:13 55.04062 -7.15882 21 ft 7 kts 258°
2026-05-04 15:13 55.04070 -7.15911 20 ft 8 kts 328°
2026-05-04 15:13 55.04137 -7.15902 19 ft 10 kts 359°
2026-05-04 15:14 55.04212 -7.15924 18 ft 12 kts 348°
2026-05-04 15:14 55.04299 -7.15937 18 ft 11 kts 22°
2026-05-04 15:14 55.04328 -7.15873 18 ft 6 kts 71°
2026-05-04 15:14 55.04367 -7.15637 17 ft 51 kts 73°
2026-05-04 15:15 55.04456 -7.15118 16 ft 33 kts 72°
2026-05-04 15:15 55.04502 -7.14877 13 ft 7 kts 60°
2026-05-04 15:15 55.04514 -7.14827 14 ft 1 kts 103°
2026-05-04 15:16 55.04509 -7.14823 12 ft 1 kts 161°
2026-05-04 15:16 55.04506 -7.14831 12 ft 1 kts 229°
2026-05-04 15:16 55.04505 -7.14842 12 ft 0 kts 253°
2026-05-04 15:17 55.04432 -7.15253 15 ft 75 kts 253°
2026-05-04 15:17 55.03905 -7.18242 595 ft 152 kts 254°
2026-05-04 15:17 55.03590 -7.19943 1347 ft 148 kts 253°
2026-05-04 15:18 55.03023 -7.21575 1782 ft 161 kts 226°
2026-05-04 15:18 55.01985 -7.22382 1972 ft 182 kts 186°
2026-05-04 15:18 55.00720 -7.21735 2174 ft 200 kts 148°
2026-05-04 15:19 54.99040 -7.17650 2347 ft 241 kts 92°
2026-05-04 15:19 54.99046 -7.14726 2955 ft 251 kts 86°
2026-05-04 15:19 54.97945 -7.08847 4181 ft 271 kts 125°
2026-05-04 15:20 54.96831 -7.06176 4884 ft 275 kts 127°
2026-05-04 15:20 54.95730 -7.03430 5591 ft 278 kts 123°
2026-05-04 15:20 54.94704 -7.00553 6310 ft 282 kts 122°
2026-05-04 15:20 54.93673 -6.97619 6998 ft 285 kts 123°
2026-05-04 15:21 54.92608 -6.94692 7687 ft 289 kts 123°
2026-05-04 15:21 54.91516 -6.91728 8368 ft 293 kts 123°
2026-05-04 15:21 54.89308 -6.85674 9774 ft 300 kts 123°
2026-05-04 15:22 54.88196 -6.82627 10400 ft 304 kts 123°
2026-05-04 15:22 54.87036 -6.79465 10823 ft 316 kts 123°
2026-05-04 15:22 54.84555 -6.72703 11463 ft 345 kts 123°
2026-05-04 15:23 54.83248 -6.69147 11963 ft 353 kts 123°
2026-05-04 15:23 54.81920 -6.65539 12560 ft 357 kts 123°
2026-05-04 15:23 54.80568 -6.61872 13204 ft 361 kts 123°
2026-05-04 15:23 54.79204 -6.58179 13839 ft 365 kts 123°
2026-05-04 15:24 54.76454 -6.50749 14964 ft 372 kts 122°
2026-05-04 15:24 54.73634 -6.43152 16078 ft 378 kts 123°
2026-05-04 15:25 54.72202 -6.39304 16628 ft 382 kts 122°
2026-05-04 15:25 54.70753 -6.35416 17173 ft 385 kts 122°
2026-05-04 15:25 54.69298 -6.31518 17714 ft 388 kts 122°
2026-05-04 15:26 54.66352 -6.23645 18739 ft 394 kts 123°
2026-05-04 15:26 54.64779 -6.19749 19213 ft 397 kts 124°
2026-05-04 15:26 54.61701 -6.11755 20151 ft 402 kts 123°
2026-05-04 15:27 54.60116 -6.07755 20623 ft 405 kts 124°
2026-05-04 15:27 54.56912 -5.99740 21600 ft 407 kts 123°
2026-05-04 15:28 54.53747 -5.91744 22895 ft 401 kts 123°
2026-05-04 15:28 54.52151 -5.87824 23526 ft 398 kts 128°
2026-05-04 15:28 54.47913 -5.81725 24486 ft 398 kts 144°
2026-05-04 15:29 54.45664 -5.79066 24911 ft 397 kts 144°
2026-05-04 15:30 54.36671 -5.68296 25073 ft 390 kts 144°
2026-05-04 15:30 54.30034 -5.60388 25071 ft 388 kts 143°
2026-05-04 15:31 54.26017 -5.54332 25098 ft 386 kts 125°
2026-05-04 15:31 54.24433 -5.50619 25092 ft 386 kts 123°
2026-05-04 15:32 54.19735 -5.39415 25084 ft 387 kts 124°
2026-05-04 15:32 54.16581 -5.31988 25086 ft 387 kts 124°
2026-05-04 15:33 54.13442 -5.24597 25085 ft 387 kts 124°
2026-05-04 15:34 54.08695 -5.13481 25089 ft 386 kts 124°
2026-05-04 15:34 54.07115 -5.09790 25087 ft 386 kts 124°
2026-05-04 15:34 54.03970 -5.02460 25085 ft 386 kts 124°
2026-05-04 15:35 54.00802 -4.95098 25084 ft 386 kts 124°
2026-05-04 15:35 53.99211 -4.91411 25084 ft 386 kts 124°
2026-05-04 15:35 53.97626 -4.87741 25085 ft 386 kts 124°
2026-05-04 15:36 53.94444 -4.80395 25076 ft 386 kts 124°
2026-05-04 15:36 53.93390 -4.77967 25076 ft 386 kts 124°
2026-05-04 15:36 53.91255 -4.73056 25076 ft 386 kts 124°
2026-05-04 15:37 53.89661 -4.69394 25072 ft 385 kts 123°
2026-05-04 15:37 53.88075 -4.65759 25081 ft 383 kts 124°
2026-05-04 15:37 53.86487 -4.62121 24869 ft 384 kts 124°
2026-05-04 15:37 53.84916 -4.58527 24504 ft 384 kts 124°
2026-05-04 15:38 53.83325 -4.54895 24154 ft 384 kts 124°
2026-05-04 15:38 53.81729 -4.51257 23808 ft 384 kts 124°
2026-05-04 15:38 53.80139 -4.47637 23532 ft 384 kts 124°
2026-05-04 15:38 53.78539 -4.43997 23217 ft 384 kts 124°
2026-05-04 15:39 53.76944 -4.40373 22885 ft 385 kts 124°
2026-05-04 15:39 53.75340 -4.36736 22574 ft 385 kts 124°
2026-05-04 15:39 53.72124 -4.29458 21938 ft 387 kts 125°
2026-05-04 15:40 53.70512 -4.25819 21618 ft 386 kts 125°
2026-05-04 15:40 53.68926 -4.22244 21304 ft 384 kts 125°
2026-05-04 15:40 53.67325 -4.18640 20996 ft 383 kts 125°
2026-05-04 15:40 53.65731 -4.15054 20672 ft 381 kts 126°
2026-05-04 15:41 53.64148 -4.11498 20361 ft 377 kts 125°
2026-05-04 15:41 53.62853 -4.07701 20055 ft 372 kts 112°
2026-05-04 15:41 53.61854 -4.03684 19740 ft 371 kts 111°
2026-05-04 15:41 53.60883 -3.99659 19433 ft 370 kts 111°
2026-05-04 15:42 53.59903 -3.95658 19131 ft 368 kts 111°
2026-05-04 15:42 53.58913 -3.91689 18833 ft 367 kts 112°
2026-05-04 15:42 53.57926 -3.87723 18528 ft 367 kts 112°
2026-05-04 15:42 53.56947 -3.83771 18204 ft 366 kts 112°
2026-05-04 15:43 53.55967 -3.79817 17886 ft 365 kts 112°
2026-05-04 15:43 53.55001 -3.75945 17585 ft 364 kts 112°
2026-05-04 15:43 53.54022 -3.72027 17281 ft 363 kts 112°
2026-05-04 15:43 53.53039 -3.68096 16544 ft 368 kts 112°
2026-05-04 15:44 53.52038 -3.64095 15691 ft 370 kts 112°
2026-05-04 15:44 53.51050 -3.60157 15078 ft 359 kts 113°
2026-05-04 15:44 53.50095 -3.56361 14703 ft 347 kts 113°
2026-05-04 15:44 53.49163 -3.52659 14376 ft 348 kts 113°
2026-05-04 15:45 53.48213 -3.48895 14063 ft 350 kts 113°
2026-05-04 15:45 53.47263 -3.45135 13722 ft 349 kts 113°
2026-05-04 15:45 53.46316 -3.41389 13379 ft 348 kts 114°
2026-05-04 15:45 53.45369 -3.37654 13054 ft 347 kts 114°
2026-05-04 15:46 53.44424 -3.33934 12735 ft 346 kts 113°
2026-05-04 15:46 53.43485 -3.30240 12416 ft 341 kts 113°
2026-05-04 15:46 53.42580 -3.26688 12068 ft 315 kts 114°
2026-05-04 15:46 53.41754 -3.23455 11777 ft 292 kts 114°
2026-05-04 15:47 53.40942 -3.20279 11547 ft 306 kts 114°
2026-05-04 15:47 53.40116 -3.16982 11255 ft 306 kts 109°
2026-05-04 15:47 53.39812 -3.13533 10989 ft 304 kts 85°
2026-05-04 15:47 53.40364 -3.10111 10712 ft 301 kts 62°
2026-05-04 15:48 53.41366 -3.07092 10426 ft 299 kts 59°
2026-05-04 15:48 53.42431 -3.04113 10132 ft 297 kts 58°
2026-05-04 15:48 53.44513 -2.98152 9540 ft 293 kts 58°
2026-05-04 15:49 53.45524 -2.95206 9265 ft 290 kts 58°
2026-05-04 15:49 53.46493 -2.92395 8971 ft 268 kts 58°
2026-05-04 15:49 53.46798 -2.91513 8883 ft 267 kts 59°
2026-05-04 15:49 53.48365 -2.86983 8476 ft 261 kts 58°
2026-05-04 15:50 53.49290 -2.84298 8253 ft 269 kts 58°
2026-05-04 15:50 53.50198 -2.81655 7991 ft 250 kts 59°
2026-05-04 15:50 53.51043 -2.79196 8101 ft 240 kts 58°
2026-05-04 15:50 53.51881 -2.76758 8082 ft 241 kts 58°
2026-05-04 15:51 53.52716 -2.74327 8080 ft 240 kts 59°
2026-05-04 15:51 53.53497 -2.71893 8069 ft 239 kts 67°
2026-05-04 15:51 53.53671 -2.69139 8075 ft 239 kts 94°
2026-05-04 15:51 53.53488 -2.66354 8066 ft 240 kts 97°
2026-05-04 15:52 53.53267 -2.63551 8080 ft 247 kts 97°
2026-05-04 15:52 53.53057 -2.60652 8072 ft 250 kts 96°
2026-05-04 15:52 53.52857 -2.57721 8071 ft 252 kts 96°
2026-05-04 15:52 53.52654 -2.54804 8072 ft 251 kts 96°
2026-05-04 15:53 53.52858 -2.51937 7902 ft 250 kts 69°
2026-05-04 15:53 53.53605 -2.49301 7632 ft 250 kts 61°
2026-05-04 15:53 53.54444 -2.46743 7378 ft 249 kts 60°
2026-05-04 15:53 53.55295 -2.44208 7131 ft 249 kts 60°
2026-05-04 15:54 53.56138 -2.41709 6888 ft 248 kts 60°
2026-05-04 15:54 53.56988 -2.39183 6634 ft 247 kts 62°
2026-05-04 15:54 53.57400 -2.36406 6384 ft 246 kts 85°
2026-05-04 15:54 53.57463 -2.33575 6073 ft 233 kts 89°
2026-05-04 15:55 53.57469 -2.30838 5513 ft 242 kts 90°
2026-05-04 15:55 53.57466 -2.28922 5241 ft 242 kts 90°
2026-05-04 15:55 53.57456 -2.26123 4865 ft 242 kts 90°
2026-05-04 15:55 53.57443 -2.23273 4300 ft 241 kts 90°
2026-05-04 15:56 53.57429 -2.20570 4025 ft 232 kts 90°
2026-05-04 15:56 53.57414 -2.17905 4005 ft 217 kts 90°
2026-05-04 15:56 53.56994 -2.15676 4004 ft 196 kts 127°
2026-05-04 15:56 53.56082 -2.13964 3997 ft 195 kts 134°
2026-05-04 15:57 53.55136 -2.12354 3993 ft 192 kts 135°
2026-05-04 15:57 53.54180 -2.10741 3668 ft 196 kts 135°
2026-05-04 15:57 53.53226 -2.09134 3144 ft 190 kts 135°
2026-05-04 15:57 53.52311 -2.07602 3019 ft 188 kts 135°
2026-05-04 15:58 53.51367 -2.06021 3023 ft 190 kts 135°
2026-05-04 15:58 53.50291 -2.04814 3006 ft 190 kts 170°
2026-05-04 15:58 53.49008 -2.05094 3015 ft 188 kts 198°
2026-05-04 15:58 53.47772 -2.05779 3016 ft 187 kts 200°
2026-05-04 15:59 53.46601 -2.06454 2992 ft 167 kts 200°
2026-05-04 15:59 53.45526 -2.07092 2993 ft 166 kts 204°
2026-05-04 15:59 53.44695 -2.08315 2981 ft 162 kts 236°
2026-05-04 15:59 53.43984 -2.09793 2774 ft 160 kts 231°
2026-05-04 16:00 53.43266 -2.11243 2552 ft 163 kts 231°
2026-05-04 16:00 53.42556 -2.12705 2330 ft 161 kts 232°
2026-05-04 16:00 53.41848 -2.14164 2110 ft 161 kts 232°
2026-05-04 16:00 53.41142 -2.15619 1893 ft 161 kts 232°
2026-05-04 16:01 53.40438 -2.17071 1679 ft 160 kts 232°
2026-05-04 16:01 53.39734 -2.18522 1451 ft 160 kts 231°
2026-05-04 16:01 53.39031 -2.19971 1229 ft 160 kts 231°
2026-05-04 16:01 53.38334 -2.21408 1002 ft 157 kts 231°
2026-05-04 16:02 53.37688 -2.22736 773 ft 141 kts 231°
2026-05-04 16:02 53.37079 -2.23985 620 ft 136 kts 231°
2026-05-04 16:02 53.35896 -2.26418 277 ft 132 kts 231°
2026-05-04 16:03 53.35399 -2.27454 244 ft 96 kts 231°
2026-05-04 16:03 53.35092 -2.28076 234 ft 40 kts 230°
2026-05-04 16:03 53.34988 -2.28341 233 ft 20 kts 245°
2026-05-04 16:03 53.34959 -2.28491 234 ft 8 kts 254°
2026-05-04 16:04 53.34951 -2.28553 231 ft 6 kts 259°
2026-05-04 16:04 53.34959 -2.28732 231 ft 9 kts 315°
2026-05-04 16:04 53.35011 -2.28744 228 ft 4 kts 21°
2026-05-04 16:05 53.35025 -2.28722 230 ft 3 kts 43°
2026-05-04 16:05 53.35040 -2.28696 229 ft 3 kts 47°
2026-05-04 16:05 53.35158 -2.28454 228 ft 18 kts 49°
2026-05-04 16:06 53.35217 -2.28332 234 ft 11 kts 51°
2026-05-04 16:06 53.35368 -2.28063 237 ft 11 kts 44°
2026-05-04 16:07 53.35447 -2.27935 239 ft 12 kts 43°
2026-05-04 16:07 53.35610 -2.27672 244 ft 2 kts 44°
2026-05-04 16:09 53.35612 -2.27670 244 ft 2 kts 44°
2026-05-04 16:09 53.35693 -2.27519 251 ft 8 kts 51°
2026-05-04 16:10 53.35763 -2.27377 256 ft 22 kts 50°
2026-05-04 16:11 53.35852 -2.27172 256 ft 8 kts 81°
2026-05-04 16:11 53.35872 -2.27116 256 ft 2 kts 29°
2026-05-04 16:12 53.35886 -2.27103 256 ft 0 kts 29°